Location: Asheville, NC
(35.6000°N, 82.5500°W)
Time: 01:20:14
(UTC-04:00)

FO-29 - Pass Details

Date: 07 January 2018
Orbit: 801 x 1321 km, 98.5° (Epoch: 24 April)

Event Time Altitude Azimuth Distance (km) Brightness Sun altitude
Rises 06:27:23 0° 120° (ESE) 4,256 14.5 -14.5°
Reaches altitude 10° 06:31:04 10° 104° (ESE) 3,236 13.7 -13.8°
Maximum altitude 06:35:53 19° 63° (ENE) 2,532 12.3 -12.9°
Drops below altitude 10° 06:40:27 10° 22° (NNE) 3,038 12.1 -12.0°
Sets 06:43:44 0° 6° (N) 3,910 12.5 -11.4°
